P/2013 O2 ( PanSTARRS )

Japanese version
Home page
Updated on May 7, 2015

---------------------------------------------------------------------

* Profile

Discovery Date July 16, 2013
Magnitude 20.6 mag
Discoverer Pan-STARRS 1 telescope (Haleakala)

* Pictures

* Orbital Elements

Epoch 2013 Nov. 4.0 TT = JDT 2456600.5
T 2013 Dec. 16.36822 TT                                 MPC
q   2.1459939            (2000.0)            P               Q
n   0.13174482     Peri.  213.73998     +0.48538282     -0.86774133
a   3.8251373      Node   207.67538     +0.84438678     +0.49696889
e   0.4389760      Incl.   13.30695     +0.22674762     +0.00684804
P   7.48
From 161 observations 2013 July 16-2014 Feb. 23, mean residual 0".6.

* Finding Charts

* Magnitudes Graph

        m1 = 13.2 + 5 log d + 10.0 log r           [    ,-125]  (             - 2013 Aug. 13)
        m1 = 13.2 + 5 log d + 10.0 log r(t + 250)  [-125,    ]  (2013 Aug. 13 -             )

        * Gray curve is:  m1 = 13.2 + 5 log d + 10.0 log r

---------------------------------------------------------------------

The orbital elements are published on M.P.E.C. 2014-E18.
The charts are made with StellaNavigator Ver.8 (AstroArts).
The magnitudes graphs are made with Comet for Windows.

---------------------------------------------------------------------

Copyright(C) Seiichi Yoshida (comet@aerith.net). All rights reserved.